Location: *
(51.1248°S, 108.4023°W)
Time: 09:25:38
(UTC+00:00)

Envisat - Pass Details

Date: 30 September 2021
Orbit: 764 x 766 km, 98.2° (Epoch: 27 October)

Event Time Altitude Azimuth Distance (km) Brightness Sun altitude
Rises 11:18:06 0° 16° (NNE) 3,232 6.2 -13.8°
Reaches altitude 10° 11:20:23 10° 15° (NNE) 2,314 5.4 -13.4°
Maximum altitude 11:25:31 88° 287° (WNW) 785 3.0 -12.7°
Drops below altitude 10° 11:30:42 10° 195° (SSW) 2,344 5.6 -11.9°
Sets 11:33:02 0° 194° (SSW) 3,278 6.3 -11.6°
